SL-8 DEB, 21159

Orbit data source: Space-Track

SL-8 DEB, 21159 is space debris in LEO originally from a launch on Tue, 12 Feb 1991 UTC launched from the Plesetsk Missile And Space Complex (PKMTR). Debris objects in space refer to the collection of defunct objects orbiting the Earth. Examples of debris include non-operational satellites, rocket bodies, and fragments generated from explosions, collisions, or faulty payload assembly.

Loading next visibility...
Identifier
21159, 1991-009W
Orbit
LEO
Country
Flag of CISCIS
Related business
Manufacturer
Unknown
Mission
Spacecraft
Bus & Motor
Unknown
Mass
Unknown
Launch date (UTC)
1991-02-12 (35 years ago)
Launch vehicle
Unknown
Launch site
Plesetsk Missile And Space Complex (PKMTR)
Object type
Payload
Rocket body
Debris
Shape & HBR
Unknown shape, 0.2 m
Radar Cross Section
Medium (>0.1 m² and <1 m²)

Expand to show TLE details & history
Last TLE update: 2 days ago

TLE from 2 days ago
0 SL-8 DEB
1 21159U 91009W   26171.45028441 -.00000011  00000-0  32729-4 0  9992
2 21159  73.9388 163.7743 0143425  76.4354  80.1357 12.29089108583412
Epoch: 2026-06-20T10:48Z
TLE epoch observation values (Epoch: 2026-06-20T10:48:24.573Z)
Latitude
20.92594°
Longitude
-93.28231°
Altitude
1,537.348 km
Speed
7.107 km/s
True Right ascension
22h 29m 56s
True Declination
20° 49' 22"
Sunlit
Object was in daylight at epoch
Visualization orbit readout
Latitude
Unknown
Longitude
Unknown
Altitude
Unknown
Speed
Unknown
Apparent Right ascension
Unknown
Apparent Declination
Unknown
Sunlit
N/A
Visualization observer readout
Local Sidereal Time
23:21:47
Azimuth
Unknown
Elevation
Unknown
Doppler factor
Unknown
Orbital elements
Apogee altitude
1,664.788 km
Perigee altitude
1,437.339 km
Semi-major axis
7,929.2 km
Eccentricity
0.01434
Inclination
73.9388°
RAAN
163.7743°
Arg. of periapsis
76.4354°
True anomaly
81.7597°
Mean anomaly
80.1357°
Eccentric anomaly
80.94723°
Mean motion
3.07397 °/min
Orbital period
117.11 mins
BSTAR
0.000032729
Loading maneuver chart data...
Computing Atmospheric mass density...
Loading historical data...
Loading historical data...
Loading historical data...
Loading historical data...
Loading historical data...
Loading historical data...
Loading historical data...

Documentation

Showing up to 5 results
|